GEFSSGP_850_meantemp_078.txt.gz
Temperature
14 14 15 15 14 13 13 15 17 19 20 21 21 21 19 19 19 19 18 18 18 17 17 16 16 16 16 16 16 16 16 16 16 16 16 16 16 16 16 16 16 17 17 17 17 17 17 16 16
13 14 14 14 13 12 13 15 18 19 21 21 21 20 19 18 18 17 17 17 18 17 17 16 16 16 16 16 16 16 16 16 16 16 16 16 16 16 16 17 17 17 17 17 17 17 17 16 16
13 13 14 12 12 13 15 17 18 20 21 21 20 20 19 18 17 17 17 17 17 17 17 16 16 16 16 16 15 16 16 16 16 16 16 17 17 17 17 17 17 17 17 17 17 17 17 17 16
12 13 13 11 12 14 16 18 19 20 21 21 20 18 18 18 18 18 18 17 17 17 16 16 16 16 16 16 16 16 16 16 16 17 17 17 17 17 17 17 18 18 18 18 17 17 17 17 17
11 12 11 11 12 14 16 18 19 19 19 20 19 17 17 18 19 18 18 17 17 17 16 16 15 16 16 16 16 16 16 16 17 17 17 17 17 18 18 18 18 18 18 18 18 17 17 17 17
11 11 11 12 13 15 16 18 19 19 19 19 18 17 17 18 18 18 17 17 17 17 16 15 15 15 16 16 16 16 16 16 17 17 17 17 18 18 18 18 18 18 18 18 18 17 17 17 17
10 10 11 12 13 14 16 18 18 18 18 19 19 16 16 17 18 18 17 17 17 16 16 15 15 15 16 16 16 16 16 16 17 17 17 17 18 18 18 18 18 18 18 18 18 17 17 17 17
10 10 11 11 13 14 17 18 19 19 18 19 19 17 16 17 17 17 17 17 16 16 16 15 15 15 16 16 16 16 16 16 16 17 17 17 17 18 18 18 18 18 18 18 17 17 17 17 17
10 10 10 12 13 14 16 17 18 19 18 18 18 18 18 17 17 17 16 16 16 16 16 15 15 15 15 16 16 16 16 16 16 17 17 17 18 18 18 18 18 18 17 17 17 17 17 17 16
9 9 11 13 13 14 16 16 17 17 16 17 17 18 17 17 17 17 17 16 16 16 16 16 15 15 15 16 16 16 16 16 16 17 17 17 17 18 18 18 17 17 17 17 17 17 17 17 16
9 9 11 13 14 14 15 16 16 16 15 16 17 17 17 17 17 17 17 17 17 16 16 16 16 16 16 16 16 16 16 16 16 17 17 17 17 17 17 17 17 17 17 17 17 17 17 16 16
9 10 11 12 13 13 14 15 15 15 16 17 18 18 17 17 17 17 17 17 17 16 16 16 16 16 16 16 16 16 17 16 16 16 17 17 17 17 17 17 17 17 17 17 17 16 16 16 16
8 9 11 12 12 12 13 14 14 15 16 17 17 17 17 17 17 17 17 17 17 16 16 16 16 16 16 16 16 16 16 16 16 16 16 17 17 17 17 17 17 17 17 16 16 16 16 15 15
8 9 10 11 12 12 12 13 13 14 15 16 16 16 17 17 17 17 17 17 17 17 16 16 16 16 16 16 16 16 16 16 16 16 16 16 16 16 16 16 16 16 16 16 16 15 15 15 15
9 9 10 11 11 11 12 12 13 14 15 15 15 16 16 16 17 17 17 17 17 17 17 16 16 16 16 16 16 16 16 16 16 15 15 15 15 15 15 16 16 16 15 15 15 15 15 14 14
8 9 9 10 11 11 11 11 12 13 14 14 14 15 15 16 16 16 16 16 16 16 16 16 16 16 16 16 15 15 15 15 15 15 15 15 15 15 15 15 15 15 15 15 14 14 14 14 14
8 7 8 10 11 11 11 11 12 12 13 13 14 14 15 15 16 16 16 16 16 16 16 16 16 16 16 16 15 15 15 15 15 15 15 15 14 14 14 14 14 14 14 14 14 14 14 14 13
7 8 9 9 10 10 10 10 11 11 12 12 13 14 14 15 16 16 16 16 16 16 16 16 16 16 16 15 15 15 15 15 14 14 14 14 14 14 14 14 14 14 14 14 14 13 13 13 13
7 8 8 9 10 10 10 10 10 11 11 11 12 13 14 15 16 16 16 16 16 16 16 16 16 16 15 15 15 15 15 15 14 14 14 14 14 14 14 14 14 14 14 14 13 13 13 13 13
7 8 8 9 10 10 9 10 10 11 11 11 12 13 14 14 15 16 16 16 16 16 16 16 16 16 16 16 15 15 15 15 15 14 14 14 14 14 14 14 14 14 14 14 13 13 13 13 13
7 8 8 9 9 10 10 10 10 11 11 12 12 13 14 15 15 16 16 16 16 17 16 16 16 16 16 15 15 15 15 14 14 14 14 14 14 14 14 14 14 14 14 14 13 13 13 13 13
8 8 9 9 9 9 9 9 10 11 11 12 12 13 14 15 16 16 16 16 17 17 17 17 16 16 16 16 15 15 15 15 15 15 15 14 14 14 14 14 14 14 14 14 14 13 13 13 13
8 9 9 9 9 8 9 9 9 10 11 12 12 14 15 16 16 16 17 17 17 17 17 16 16 16 16 16 15 15 15 15 15 15 15 14 14 14 14 14 14 14 14 13 13 13 13 12 12
8 9 9 8 8 8 9 9 9 10 11 12 13 14 15 16 16 16 17 17 16 16 16 16 16 16 16 15 15 15 15 15 15 15 14 14 14 14 14 14 14 14 13 13 13 13 12 12 12
8 8 7 8 8 8 9 9 10 11 12 12 13 14 15 15 16 16 16 16 16 16 16 16 16 15 15 15 15 15 15 15 15 15 14 14 14 14 14 14 13 13 13 13 12 12 12 11 11
8 8 7 8 8 8 9 9 10 11 12 13 13 14 14 15 15 16 16 16 16 16 16 15 15 15 15 15 15 15 14 14 14 14 14 14 14 13 13 13 13 13 13 12 12 11 11 11 10
8 7 8 7 8 8 9 10 11 12 11 11 12 13 14 14 15 15 15 15 15 15 15 15 15 15 14 14 14 14 14 14 14 14 13 13 13 13 13 13 12 12 12 11 11 11 10 10 9
9 8 7 7 8 8 9 10 10 11 11 10 10 12 13 14 14 14 14 14 14 14 14 14 14 14 14 13 13 13 13 13 13 13 13 12 12 12 12 12 12 11 11 10 10 10 9 9 8
8 9 8 7 7 7 8 9 10 10 10 10 10 12 13 13 13 13 14 14 14 13 13 13 13 13 13 12 12 12 12 12 12 12 12 12 11 11 11 11 11 10 10 10 9 9 8 8 7
8 9 8 8 7 7 7 8 10 9 9 9 10 12 12 12 13 13 13 13 13 13 12 12 12 12 12 11 11 11 11 11 11 11 11 11 11 10 10 10 10 9 9 8 8 7 7 7 6

GEFSSGP_850_meantemp_084.txt.gz
Temperature
11 12 13 13 12 11 12 12 14 16 17 18 19 19 18 18 17 18 17 17 17 16 16 16 16 16 16 16 15 16 16 16 16 16 16 16 16 16 16 17 17 17 17 17 17 17 17 17 17
11 12 12 12 11 11 11 13 14 16 18 18 19 19 18 17 17 17 16 16 16 16 16 16 16 16 16 16 16 16 16 16 16 16 16 16 16 16 16 17 17 17 17 17 17 17 17 17 17
11 11 12 10 10 12 12 13 14 16 18 18 18 18 17 17 17 16 16 16 16 16 16 16 16 16 16 16 16 16 16 16 16 16 16 16 16 16 17 17 17 17 18 17 17 17 17 17 17
10 11 11 10 11 11 13 14 15 16 17 18 17 17 17 17 17 16 16 16 16 16 16 15 15 15 16 16 15 16 16 16 16 16 16 16 16 17 17 17 17 18 18 17 17 17 17 17 17
9 10 9 10 11 12 12 14 15 15 16 17 17 16 17 17 17 17 16 15 16 15 15 15 15 15 15 15 15 16 16 16 16 16 16 16 17 17 17 17 17 18 18 17 17 17 17 17 17
9 9 9 10 10 12 13 15 15 15 16 17 17 16 17 17 17 16 16 15 15 15 15 15 15 15 15 15 15 15 16 16 16 16 16 17 17 17 17 17 18 18 17 17 17 17 17 17 17
8 8 9 10 10 11 13 15 15 14 15 16 17 16 16 16 16 16 16 15 15 15 15 15 15 15 15 15 15 15 16 16 16 16 17 17 17 17 17 18 18 17 17 17 17 17 17 17 17
8 8 9 9 10 11 14 15 15 15 15 17 17 16 16 16 16 16 16 15 15 15 15 15 15 15 15 15 15 15 15 16 16 17 17 17 17 17 17 18 17 17 17 17 17 17 17 16 16
8 7 8 9 10 11 13 14 15 16 16 16 17 17 17 16 15 15 15 15 15 15 15 15 15 15 15 15 15 15 15 16 16 16 17 17 17 17 17 17 17 17 17 17 17 17 16 16 16
7 7 8 10 11 11 13 14 14 15 15 15 16 17 16 15 16 15 15 15 15 15 15 15 15 15 15 15 15 15 15 15 16 16 17 17 17 17 17 17 17 17 17 17 16 16 16 16 16
7 7 8 10 11 11 12 13 14 14 14 14 15 15 15 15 15 16 16 16 16 15 15 15 15 15 15 15 15 15 15 15 16 16 16 17 17 17 17 17 17 17 17 17 16 16 16 16 15
6 7 8 9 10 11 11 12 13 13 14 15 16 16 15 15 15 16 16 16 16 16 15 15 15 15 15 15 15 15 15 15 16 16 16 17 17 17 17 17 17 17 17 16 16 16 16 15 15
6 7 8 9 9 10 10 11 12 13 14 15 15 15 15 15 15 16 16 16 16 16 16 16 15 15 15 15 15 15 16 16 16 16 16 16 17 17 17 17 16 16 16 16 16 16 15 15 15
6 7 7 8 9 9 10 10 11 12 13 14 14 15 15 15 15 15 15 15 16 16 16 16 16 16 16 16 16 16 16 16 16 16 16 16 16 16 16 16 16 16 16 15 15 15 15 15 15
6 6 7 8 8 9 10 10 10 11 12 13 14 14 14 15 15 15 15 16 16 16 16 16 16 16 16 16 16 16 16 16 16 16 16 16 16 16 16 16 16 15 15 15 15 15 14 14 14
6 6 6 8 8 9 9 9 10 11 11 12 13 14 14 14 14 15 15 15 16 16 15 16 16 16 16 16 16 16 16 16 16 16 16 16 16 15 15 15 15 15 15 14 14 14 14 14 14
5 5 6 7 8 8 9 9 10 10 11 11 12 13 13 14 14 14 15 15 15 15 15 16 16 16 16 16 16 16 16 16 16 15 15 15 15 15 15 15 14 14 14 14 14 14 14 14 13
5 6 6 7 8 8 8 8 9 10 10 10 11 12 13 13 14 14 14 15 15 15 15 15 15 16 16 16 15 15 15 15 15 15 15 15 15 14 14 14 14 14 14 14 13 13 13 13 13
5 6 6 7 8 8 8 8 9 9 10 10 10 11 12 13 14 14 14 14 14 14 15 15 15 15 15 15 15 15 15 15 15 15 15 15 14 14 14 14 14 13 13 13 13 13 13 13 13
6 6 7 7 8 8 8 8 9 9 9 10 10 11 12 13 13 14 14 14 14 14 14 14 15 15 15 15 15 15 15 15 15 15 15 15 14 14 14 14 14 13 13 13 13 13 13 13 13
6 6 7 7 8 8 8 8 9 9 9 10 11 11 12 13 13 14 14 14 14 14 14 14 14 14 14 14 14 15 14 14 14 14 14 14 14 14 14 14 14 13 13 13 13 13 13 13 13
6 7 8 8 7 7 8 8 9 9 9 10 10 11 12 13 14 15 15 15 15 15 15 14 14 14 14 14 14 14 14 14 15 15 15 15 14 14 14 14 14 13 13 13 13 13 13 13 13
6 7 7 8 7 7 7 7 8 9 9 10 10 11 13 14 14 15 15 15 15 15 15 15 15 15 14 14 14 14 14 14 14 14 14 14 14 14 14 14 14 13 13 13 13 13 13 13 12
7 7 7 7 7 7 8 8 8 8 9 10 10 11 13 14 14 15 15 15 15 15 15 15 15 15 15 14 14 14 14 14 14 14 14 14 14 14 14 14 13 13 13 13 13 13 13 12 12
7 7 7 7 7 7 8 8 8 9 9 10 10 12 13 14 14 15 15 15 15 15 15 15 15 15 15 15 14 14 14 14 14 14 14 14 14 13 13 13 13 13 13 13 13 12 12 12 11
7 7 7 7 7 7 8 8 8 9 9 10 10 11 13 14 14 15 15 15 15 15 15 15 15 15 15 15 14 14 14 14 14 14 14 14 13 13 13 13 13 13 12 12 12 12 12 11 11
7 6 7 6 7 7 8 8 8 9 9 8 9 10 11 13 13 14 14 14 15 15 15 15 15 15 15 15 14 14 14 14 13 13 13 13 13 13 12 12 12 12 12 12 12 11 11 11 10
7 7 6 7 7 7 8 8 8 9 8 8 8 9 10 12 13 13 14 14 14 14 14 14 14 14 14 14 14 13 13 13 13 13 13 13 12 12 12 12 12 12 11 11 11 11 10 10 10
7 7 6 6 6 7 8 8 8 7 8 8 8 9 10 11 12 12 13 13 13 13 13 13 13 13 13 13 13 13 13 13 12 12 12 12 12 11 11 11 11 11 11 11 10 10 10 9 9
7 7 7 7 6 5 6 8 8 6 6 7 8 9 10 10 11 12 12 12 12 12 13 13 13 12 12 12 12 12 12 12 11 11 11 11 11 11 11 10 10 10 10 10 10 9 9 8 8

GEFSSGP_850_meantemp_090.txt.gz
Temperature
11 11 12 13 16 17 18 20 20 21 22 22 21 22 23 23 23 23 18 18 17 16 16 16 16 16 16 16 16 16 16 16 16 16 16 16 16 16 16 17 17 17 17 16 16 16 16 16 16
10 11 12 13 16 16 18 20 20 20 21 20 20 21 21 22 20 18 18 17 16 16 15 16 16 16 16 16 16 16 16 16 16 16 16 16 16 16 16 17 17 17 17 17 17 17 17 17 17
10 10 12 14 15 17 18 20 20 20 20 19 20 20 20 20 19 18 17 17 16 16 15 15 16 16 16 16 16 16 16 16 16 16 16 16 16 16 17 17 17 17 17 17 17 17 17 17 16
9 10 12 13 15 17 19 20 20 20 19 19 19 19 19 18 18 17 17 17 16 15 15 16 16 16 16 16 16 16 16 16 16 16 16 16 16 16 17 17 17 17 17 17 17 17 17 16 16
9 11 12 13 15 17 19 19 19 19 20 19 19 19 19 17 17 17 17 17 16 15 15 15 15 16 16 16 16 16 16 16 16 16 16 16 16 16 17 17 17 17 17 17 17 17 16 16 16
10 11 12 13 15 17 18 17 17 19 19 19 19 19 18 17 17 17 17 17 16 15 15 15 15 15 15 16 16 16 15 15 15 16 16 16 16 17 17 17 17 17 17 17 17 17 16 16 16
10 11 12 14 15 16 17 17 17 18 19 19 19 19 18 17 16 16 16 16 16 15 15 15 15 15 15 15 15 15 15 15 15 16 16 16 16 17 17 17 17 17 17 17 17 16 16 16 16
9 10 11 13 14 15 17 16 16 17 18 18 18 18 18 16 16 16 16 16 15 15 15 15 15 14 15 15 15 15 15 15 15 15 16 16 16 17 17 17 17 17 17 17 16 16 16 16 16
8 9 10 12 13 14 15 15 15 15 16 16 17 17 17 16 15 15 15 15 15 15 15 15 14 14 14 14 14 15 15 15 15 15 15 16 16 16 16 16 17 17 17 16 16 16 16 16 16
8 9 11 13 13 14 14 14 14 15 15 16 16 16 16 15 15 15 14 15 15 14 14 14 14 14 14 14 14 14 14 14 14 15 15 15 16 16 16 16 16 16 16 16 16 16 16 16 15
9 9 11 12 11 12 12 13 13 14 15 16 16 15 15 14 14 14 14 14 15 14 14 14 14 14 14 14 14 14 14 14 14 14 15 15 16 16 16 16 16 16 16 16 16 16 15 15 15
9 9 9 10 10 10 11 11 12 13 13 14 14 14 14 14 14 14 14 14 14 14 14 14 14 14 14 14 14 14 14 14 14 15 15 15 16 16 16 16 16 16 16 16 16 15 15 15 15
8 9 9 9 9 9 10 10 11 12 12 12 13 13 13 14 14 14 14 14 14 14 14 14 14 14 14 14 14 14 14 14 14 15 15 16 16 16 16 16 16 16 16 16 15 15 15 15 14
8 8 9 9 9 9 10 10 10 11 11 12 12 13 13 13 14 13 13 13 13 14 14 14 14 14 14 14 14 14 14 14 15 15 15 16 16 16 16 16 16 16 16 15 15 15 14 14 14
7 7 8 9 9 9 9 9 11 11 11 11 12 12 13 13 13 13 13 13 13 13 14 14 14 14 14 15 14 14 14 15 15 15 15 16 16 16 16 16 16 15 15 15 15 14 14 14 14
7 7 8 9 9 9 8 9 11 11 11 11 12 12 12 13 13 13 13 13 13 13 13 14 14 14 14 14 14 14 15 15 15 15 15 15 15 15 15 15 15 15 15 15 15 14 14 14 14
7 7 8 9 10 9 9 9 11 10 11 11 11 11 12 12 12 12 13 13 13 13 13 14 14 14 14 14 14 14 14 14 15 15 15 15 15 15 15 15 14 14 14 14 14 14 13 13 13
7 8 8 8 9 9 9 10 10 10 11 11 11 11 11 11 12 12 12 12 12 12 13 13 13 13 14 14 14 14 14 14 14 15 15 15 15 15 14 14 14 14 14 14 14 13 13 13 13
7 7 8 9 9 9 9 10 10 11 11 11 11 11 11 11 12 12 12 12 12 12 13 13 13 13 13 13 14 14 14 14 14 14 14 15 14 14 14 14 14 13 14 13 13 13 13 13 13
7 7 8 9 10 10 10 10 11 11 11 11 11 11 11 11 12 12 12 12 12 12 12 12 13 13 13 13 14 14 14 14 14 14 14 14 14 14 14 14 13 13 13 13 13 13 13 13 13
7 8 8 9 9 10 10 10 11 11 11 11 11 11 11 12 12 11 12 12 12 12 12 12 12 13 13 13 13 13 13 13 13 13 14 14 14 14 14 13 13 13 13 13 13 13 13 13 13
7 8 8 8 9 9 10 10 11 12 12 12 11 11 11 11 12 12 12 12 12 12 12 12 12 13 13 13 13 13 13 13 13 13 13 13 13 13 13 13 13 13 13 13 13 13 13 13 13
8 9 8 9 9 9 10 10 11 11 11 12 12 12 12 11 12 12 12 12 12 12 12 12 12 13 13 13 12 12 13 13 13 13 13 13 13 13 13 13 13 13 13 13 13 13 13 13 13
8 8 9 9 10 9 10 10 11 11 11 12 13 12 11 11 11 12 12 12 12 12 12 12 12 12 13 13 13 12 12 12 12 12 13 13 13 13 13 13 13 13 13 12 12 13 13 12 13
8 9 9 9 10 10 10 10 11 11 11 11 12 11 11 11 11 11 12 12 12 12 12 12 13 13 12 12 12 12 12 12 12 12 12 12 13 13 13 13 12 12 12 12 12 12 12 12 12
8 8 9 10 10 10 10 10 11 11 11 10 10 10 10 10 11 11 12 12 12 12 13 13 13 13 12 12 12 12 12 12 12 12 12 12 12 12 12 12 12 12 12 12 12 12 12 12 12
9 9 9 10 10 11 10 11 11 11 11 10 10 10 9 9 10 10 11 11 12 12 12 13 13 13 13 12 12 12 12 12 12 12 12 12 12 12 12 12 12 12 12 12 12 12 12 12 11
9 9 9 10 10 11 11 11 10 10 10 10 10 9 9 9 9 10 11 11 11 12 12 12 12 12 12 12 12 12 12 12 12 12 12 12 12 12 12 12 12 11 11 11 11 11 11 11 11
9 9 9 10 10 11 11 10 9 9 9 9 9 8 8 8 8 9 10 11 11 12 12 12 12 12 12 12 12 12 12 12 12 12 12 12 12 12 12 11 11 11 11 11 11 11 11 11 10
8 9 9 10 10 11 11 10 9 9 9 9 9 8 7 7 8 9 9 10 10 11 11 11 11 12 12 12 12 12 12 12 12 12 11 11 11 11 11 11 11 10 10 10 10 10 10 10 10

GEFSSGP_850_meantemp_096.txt.gz
Temperature
12 13 13 14 14 15 15 17 20 21 23 24 25 25 24 24 23 21 20 19 19 19 19 18 18 17 17 17 17 17 17 16 16 16 16 16 16 16 16 16 16 16 16 16 16 16 16 16 16
12 12 13 14 14 14 16 18 19 21 23 24 24 24 24 24 22 21 20 19 18 18 18 18 17 17 17 17 17 17 16 16 16 16 16 16 16 16 16 16 16 16 16 16 16 16 16 16 16
11 12 13 14 14 14 17 19 20 22 22 23 23 23 23 23 22 20 20 19 18 17 17 17 17 17 17 17 17 16 16 16 16 16 16 16 16 16 16 16 16 16 16 17 17 17 17 17 17
11 12 13 13 14 16 17 19 20 21 22 22 22 22 22 22 21 20 19 19 18 17 17 17 17 17 16 16 16 16 16 16 16 16 16 16 16 16 16 16 16 16 17 17 17 17 17 17 16
11 12 12 12 14 16 18 19 20 20 20 21 22 21 21 21 20 20 19 18 18 17 17 17 17 17 16 16 16 16 16 16 16 16 16 16 16 16 16 16 16 16 17 17 16 17 17 16 16
11 12 12 12 14 16 17 19 19 19 19 20 21 20 20 20 20 19 19 18 18 17 17 17 16 16 16 16 16 16 16 16 16 16 16 16 16 16 16 16 16 16 16 16 16 16 16 16 16
11 11 11 13 14 15 17 19 18 18 18 19 20 19 20 19 19 19 19 18 17 17 17 16 16 16 16 16 16 16 16 16 16 16 16 16 16 16 16 16 16 16 16 16 16 16 16 16 16
10 11 11 12 13 14 16 17 18 18 18 18 18 18 18 18 18 18 18 17 17 17 16 16 16 16 16 16 16 15 15 15 15 15 15 15 15 16 16 16 16 16 16 16 16 16 16 16 16
10 9 10 12 13 14 15 16 16 16 16 17 17 17 17 17 17 17 16 16 16 16 16 16 16 16 16 15 15 15 15 15 15 15 15 15 15 15 15 16 16 16 16 16 16 16 16 16 16
10 8 10 12 13 13 14 14 14 14 15 15 16 16 16 17 16 16 16 16 16 16 16 16 15 15 15 15 15 15 15 15 15 15 15 15 15 15 15 15 16 16 16 16 16 16 16 16 15
10 9 11 12 12 12 12 13 13 13 13 14 15 15 15 15 15 15 15 15 16 16 15 15 15 15 15 15 15 15 15 14 14 15 15 14 14 15 15 15 15 15 15 15 15 15 15 15 15
10 10 11 11 11 11 11 11 12 12 12 13 13 13 14 14 14 14 15 15 15 15 15 15 15 15 14 14 14 14 14 14 14 15 14 14 14 14 15 15 15 15 15 15 15 15 15 15 14
10 10 11 11 11 11 11 11 11 11 12 12 12 13 13 13 14 14 14 15 14 15 15 15 14 14 14 14 14 14 14 14 14 14 14 14 14 14 15 15 15 15 15 15 15 15 15 14 14
10 10 10 10 10 10 10 10 11 11 11 11 12 12 12 13 13 14 14 14 14 14 14 14 14 14 14 14 14 14 14 14 14 14 14 14 14 14 14 15 15 15 15 15 15 15 14 14 14
9 9 9 10 10 10 10 9 10 11 11 11 12 12 12 12 13 13 13 14 13 13 14 14 14 14 14 14 14 14 14 14 14 14 14 14 14 14 14 14 15 15 15 15 15 14 14 14 14
8 8 7 10 11 11 10 8 11 11 11 11 11 12 12 12 12 13 13 13 13 13 13 14 13 13 13 13 14 14 14 14 14 14 14 14 14 14 14 14 15 15 15 15 15 14 14 14 14
7 7 8 9 11 11 9 9 11 11 11 11 11 12 12 12 12 12 13 13 13 13 13 13 13 13 13 13 13 13 14 14 14 14 14 14 14 14 14 14 15 15 15 15 15 14 14 14 14
7 7 8 8 10 10 9 9 10 11 11 11 11 12 12 12 12 12 12 13 13 13 12 13 13 13 13 13 13 13 13 13 14 14 14 14 14 14 14 14 14 14 15 15 15 14 14 14 14
7 7 7 9 10 9 9 9 10 11 11 11 11 11 12 12 12 12 12 12 12 12 12 12 12 13 12 12 13 13 13 13 13 13 13 14 14 14 14 14 14 14 15 15 14 14 14 13 13
7 7 7 9 10 10 9 9 10 11 11 11 11 11 12 12 12 12 12 12 12 11 12 12 12 12 12 12 13 13 13 13 13 13 13 13 14 14 14 14 14 14 14 14 14 14 13 13 13
8 8 8 8 9 10 9 9 10 11 11 11 11 11 11 11 11 11 12 11 11 11 12 12 12 12 12 12 12 12 13 13 13 13 13 13 13 14 14 14 14 14 14 14 14 13 13 13 13
8 9 9 8 8 8 9 8 9 10 10 11 11 11 11 11 11 11 11 11 11 11 11 11 12 12 12 12 12 12 12 13 13 13 13 13 13 14 14 14 14 14 14 14 14 13 13 13 13
8 9 9 8 8 8 9 8 9 10 10 10 10 10 10 11 11 11 11 11 11 11 11 11 11 11 12 12 12 12 12 13 13 13 13 13 13 13 13 14 14 14 13 13 13 13 13 13 13
9 8 8 9 8 8 9 9 8 9 9 10 10 10 10 10 11 11 11 11 11 11 11 11 11 11 11 12 12 12 12 12 13 13 13 13 13 13 13 13 13 13 13 13 13 13 13 13 12
9 7 8 8 8 9 10 9 8 9 9 9 10 10 10 10 10 10 10 10 10 11 11 11 11 11 11 11 12 12 12 12 12 12 12 12 13 13 13 13 13 13 13 13 13 13 13 13 12
8 8 8 8 9 9 9 8 8 9 9 9 9 9 9 9 9 10 10 10 10 11 11 11 11 11 11 11 11 12 12 12 12 12 12 12 13 13 13 13 12 13 12 13 13 12 12 12 12
8 8 9 8 9 9 9 9 9 9 9 9 9 9 8 8 8 9 9 10 10 10 10 11 11 11 11 11 11 11 11 11 12 12 12 12 12 12 12 12 12 12 12 12 12 12 12 12 12
9 9 9 8 9 9 9 8 8 8 8 8 8 8 8 8 8 8 9 9 10 10 10 10 10 11 11 11 11 11 11 11 11 12 12 12 12 12 12 12 12 12 12 12 11 11 11 11 11
9 9 9 9 10 9 9 8 8 8 8 8 8 8 8 7 7 8 8 9 9 9 10 10 10 10 10 10 11 11 11 11 11 11 11 11 12 11 11 11 11 11 11 11 11 11 11 11 10
10 10 10 9 9 10 8 7 9 8 8 8 8 8 8 7 7 7 8 8 9 9 9 10 10 10 10 10 10 10 11 10 10 10 11 11 11 11 11 11 11 11 10 10 10 10 10 10 10

GEFSSGP_850_meantemp_102.txt.gz
Temperature
12 13 13 13 11 10 10 11 13 15 16 18 19 20 19 20 20 20 21 21 20 20 19 18 18 18 18 18 18 17 17 17 17 17 17 17 17 17 17 17 17 17 17 16 16 16 16 16 16
12 12 13 12 9 9 10 11 13 14 16 18 19 19 19 20 20 20 20 20 20 20 19 18 18 18 18 18 17 17 17 16 16 16 16 16 16 17 17 17 17 17 17 16 16 16 16 16 16
12 12 12 9 9 9 11 12 13 15 17 17 18 19 19 20 20 20 20 20 20 19 19 18 18 17 17 17 17 17 16 16 16 16 16 16 16 16 16 16 16 16 16 16 16 16 16 16 16
11 11 11 8 9 9 11 12 13 14 16 17 17 18 19 19 19 19 20 19 19 19 19 18 18 17 17 17 17 16 16 16 16 16 16 16 16 16 16 16 16 16 17 17 16 16 16 16 16
11 11 8 8 9 10 11 12 13 13 14 16 16 16 18 18 18 19 19 19 19 19 18 18 18 17 17 17 17 16 16 16 16 16 16 16 16 16 16 16 16 16 16 16 16 16 16 16 15
10 8 7 7 8 10 11 14 14 13 14 15 16 16 17 17 18 18 18 18 18 19 18 18 17 17 17 17 16 16 16 16 16 16 16 16 16 16 16 16 16 16 16 16 16 16 16 16 15
9 7 7 8 9 10 12 13 13 12 12 14 15 15 16 17 17 17 17 17 17 18 18 18 17 17 17 16 16 16 16 16 16 16 16 16 16 16 16 16 16 16 16 16 16 16 16 16 15
9 7 7 8 8 9 11 12 12 12 12 14 14 14 14 15 15 16 16 16 16 16 17 17 17 17 16 16 16 16 16 16 16 16 16 15 16 16 16 16 16 16 16 16 16 16 16 16 15
9 6 6 7 9 10 10 10 11 12 12 12 13 13 13 14 15 15 15 16 16 15 16 16 16 16 16 16 16 16 16 15 15 15 15 15 15 15 15 16 16 16 16 16 16 16 16 16 15
8 5 6 8 9 9 9 10 10 11 10 11 12 13 13 14 14 14 14 15 15 15 15 15 15 16 16 16 16 15 15 15 15 15 15 15 15 15 15 16 16 16 16 16 16 16 16 16 15
7 6 7 9 9 9 9 9 10 10 9 10 11 12 13 13 13 13 14 14 14 15 15 15 15 15 15 15 15 15 15 15 15 15 15 15 15 15 15 15 15 16 16 16 16 16 16 16 15
7 7 8 9 9 9 9 9 9 9 10 11 11 11 12 12 12 13 13 13 14 14 14 14 15 15 15 15 15 15 15 15 14 14 15 15 15 15 15 15 15 16 16 16 16 16 16 15 15
7 7 8 8 8 8 8 9 9 9 10 11 11 11 11 12 12 12 13 13 13 14 14 14 14 14 14 14 14 14 15 15 15 14 14 15 15 15 15 15 15 16 16 16 16 16 16 15 15
7 7 7 8 8 8 8 8 8 9 10 10 10 11 11 11 11 12 12 12 13 13 14 14 14 14 14 14 14 14 14 14 14 15 14 15 15 15 15 15 15 16 16 16 16 16 15 15 15
7 6 6 7 7 8 8 7 7 9 10 10 10 10 10 11 11 12 12 12 12 13 13 13 13 13 14 14 14 14 14 14 14 14 14 14 15 15 15 15 15 15 15 15 15 15 15 15 15
6 5 5 6 7 8 7 6 8 10 9 9 9 10 10 10 11 11 12 12 12 13 13 13 13 13 13 13 13 13 14 14 14 14 14 14 14 15 15 15 15 15 15 15 15 15 15 15 15
4 4 4 6 7 8 7 6 8 9 9 9 9 9 9 10 10 11 11 12 12 12 13 13 13 13 13 13 13 13 13 13 14 14 14 14 14 14 15 15 15 15 15 15 15 15 15 15 15
4 4 4 5 7 7 6 7 8 9 9 8 9 9 9 9 10 11 11 11 12 12 12 12 12 12 13 13 12 13 13 13 13 14 14 14 14 14 14 14 15 15 15 15 15 15 15 14 14
5 5 4 6 7 7 6 7 8 8 8 8 8 8 9 9 10 11 11 11 12 12 12 12 12 12 12 12 12 12 12 13 13 13 13 13 13 14 14 14 14 14 15 15 15 15 14 14 14
5 5 5 6 7 7 7 7 8 8 8 8 8 8 8 9 10 10 10 11 11 11 12 12 12 12 12 12 12 13 13 13 13 13 13 13 13 13 14 14 14 14 15 15 15 14 14 14 14
5 5 5 6 7 7 7 6 7 8 8 8 8 8 9 9 9 10 10 11 11 11 11 11 12 12 12 12 12 12 12 12 12 12 13 13 13 13 14 14 14 14 14 14 14 14 14 14 14
6 7 7 7 6 6 6 6 6 7 8 8 8 8 8 9 9 10 10 10 10 11 11 11 11 12 12 12 12 12 12 12 12 12 12 12 12 13 13 13 14 14 14 14 14 14 14 14 14
6 7 7 7 6 6 6 6 6 7 7 7 7 7 8 8 9 9 9 10 10 10 11 11 11 11 11 12 12 12 12 12 12 12 12 12 12 12 13 13 13 13 13 14 14 14 14 14 14
7 7 6 6 6 6 6 6 6 6 6 7 7 7 7 8 8 8 9 9 10 10 10 11 11 11 11 11 11 11 11 12 12 12 12 12 12 12 12 12 13 13 13 13 13 13 13 13 13
7 6 5 6 5 6 7 7 6 6 7 7 7 7 7 7 7 8 8 9 9 9 10 10 10 10 11 11 11 11 11 12 12 12 12 12 12 12 12 12 12 12 13 13 13 13 13 13 13
7 6 6 6 6 6 7 6 6 6 7 7 6 6 7 7 7 7 7 8 8 9 9 10 10 10 10 10 11 11 11 11 11 11 11 12 12 12 12 12 12 12 12 12 12 12 12 12 12
7 6 6 6 6 6 6 6 7 7 7 7 6 6 6 6 6 7 7 7 8 8 9 9 9 10 10 10 10 10 11 11 11 11 11 11 11 11 11 12 12 12 12 12 12 12 12 12 12
7 7 6 6 7 7 7 6 6 6 6 6 6 6 5 5 6 6 6 7 7 8 8 8 9 9 9 10 10 10 10 10 10 11 11 11 11 11 11 11 11 11 11 11 11 11 11 11 11
7 7 7 6 7 7 7 6 6 6 6 6 5 5 5 5 5 5 6 6 7 7 8 8 8 9 9 9 9 9 10 10 10 10 10 10 10 11 11 11 11 11 11 11 11 11 11 11 11
7 7 7 7 7 6 6 6 6 6 6 6 5 5 5 5 5 5 6 6 7 7 7 8 8 8 8 9 9 9 9 9 10 10 10 10 10 10 10 10 10 10 10 10 10 10 10 10 10

GEFSSGP_850_meantemp_108.txt.gz
Temperature
12 12 13 13 10 8 10 10 11 12 13 15 16 16 16 17 18 18 19 20 19 19 18 18 18 17 17 17 17 17 17 17 17 17 17 17 17 17 17 17 17 17 16 16 16 16 16 16 16
12 12 13 12 9 9 9 9 10 12 14 15 16 16 16 17 18 18 19 19 19 19 18 17 17 17 17 17 17 17 17 17 17 17 17 17 17 17 17 17 17 16 16 16 16 16 16 16 16
11 12 12 8 8 9 10 10 10 12 14 15 15 16 16 16 17 17 18 18 18 18 18 17 17 17 17 16 16 16 16 16 16 16 16 16 16 16 17 16 16 16 16 16 16 16 16 16 16
11 12 11 8 8 8 10 11 11 12 13 14 14 15 15 15 15 16 17 17 18 18 17 17 17 17 17 16 16 16 16 16 16 16 16 16 16 16 16 16 16 16 16 16 16 16 16 16 16
11 11 8 7 8 8 8 10 11 11 12 13 14 13 15 15 15 16 17 17 17 17 17 17 16 16 16 16 16 16 16 16 16 16 16 16 16 16 16 16 16 16 16 16 16 16 16 16 16
10 7 7 7 7 8 9 11 11 11 11 12 13 13 14 15 15 16 16 16 16 16 16 16 16 16 16 16 16 16 16 16 16 16 16 16 16 16 16 16 16 16 16 16 16 16 16 16 16
9 6 6 7 7 8 9 11 11 10 11 12 12 12 14 14 15 15 15 16 16 16 15 16 16 16 16 16 16 16 16 16 16 16 16 16 16 16 16 16 16 16 16 16 16 16 16 16 16
9 6 6 6 7 8 9 10 10 10 11 12 12 12 13 14 14 14 15 15 15 15 15 15 15 15 15 15 15 16 16 16 16 16 16 15 15 15 16 16 16 16 16 16 16 16 16 16 16
9 5 5 6 7 8 9 9 10 10 10 11 11 12 12 13 13 14 14 14 15 15 15 15 15 15 15 15 15 15 15 15 15 15 15 15 15 15 15 15 15 16 16 16 16 16 16 16 16
7 5 6 7 7 8 8 8 9 9 9 10 11 11 12 12 12 13 13 14 14 14 14 14 15 15 15 15 15 15 15 15 15 15 15 15 15 15 15 15 15 15 15 15 16 16 16 16 16
6 5 6 7 8 8 8 8 8 8 8 9 10 11 11 11 12 12 12 13 13 14 14 14 14 14 14 15 15 15 15 15 15 15 15 15 15 15 15 15 15 15 15 15 15 15 15 15 15
6 6 6 7 8 7 7 8 8 8 9 10 10 10 10 11 11 12 12 13 13 13 14 14 14 14 14 14 14 15 14 14 15 15 15 15 15 15 15 15 15 15 15 15 15 15 15 15 15
5 6 6 7 7 7 7 7 7 8 9 9 9 10 10 10 11 11 11 12 12 13 13 13 14 14 14 14 14 14 14 14 14 14 14 15 15 15 15 15 15 15 15 15 15 15 15 15 15
5 5 6 6 7 7 6 7 6 8 9 9 9 9 10 10 10 11 11 11 12 12 13 13 13 14 14 14 14 14 14 14 14 14 14 14 15 15 15 15 15 15 15 15 15 15 15 15 15
6 5 5 6 6 6 6 6 6 9 9 8 9 9 9 10 10 10 11 11 11 12 12 13 13 13 13 13 14 14 14 14 14 14 14 14 14 14 15 15 15 15 15 15 15 15 15 15 15
5 4 4 5 6 6 6 5 7 9 8 8 8 8 9 9 10 10 10 11 11 11 12 12 12 13 13 13 13 13 13 14 14 14 14 14 14 14 14 14 14 15 15 15 15 15 15 15 15
4 3 4 4 6 6 5 5 6 8 8 7 8 8 8 9 9 10 10 10 11 11 11 12 12 12 12 13 13 13 13 13 13 14 14 14 14 14 14 14 14 14 14 14 15 15 15 15 15
4 3 4 4 5 5 5 5 6 7 7 7 7 7 8 8 9 9 9 10 10 10 11 11 12 12 12 12 12 12 13 13 13 13 13 14 14 14 14 13 13 14 14 14 14 14 14 14 14
4 4 4 4 5 5 5 5 6 7 7 7 7 7 7 8 9 9 9 9 10 10 10 11 11 11 12 12 12 12 12 13 13 13 13 13 13 13 13 13 13 13 14 14 14 14 14 14 14
4 4 4 4 5 6 5 5 6 6 7 7 7 7 7 7 8 9 9 9 9 10 10 10 11 11 11 12 12 12 12 13 13 13 13 13 13 13 13 13 13 13 13 13 14 14 14 14 13
4 4 4 5 5 6 5 5 6 7 7 7 7 7 7 7 7 8 8 9 9 9 10 10 10 11 11 11 11 12 12 12 12 12 13 13 13 13 13 13 13 13 13 13 14 14 14 14 13
5 5 5 5 5 5 5 5 6 6 6 6 6 6 6 7 7 7 8 8 9 9 9 10 10 10 11 11 11 11 11 11 12 12 13 13 13 13 12 12 13 13 13 13 13 13 13 13 13
5 6 6 5 5 5 5 5 5 6 6 6 6 6 6 6 7 7 7 8 8 9 9 9 10 10 10 10 11 11 11 11 12 12 12 12 12 12 12 12 12 12 12 12 13 13 13 13 13
6 6 5 5 5 5 5 5 5 5 5 6 6 6 6 6 6 6 7 8 8 8 8 9 9 9 10 10 10 10 11 11 11 11 11 12 12 12 12 12 12 12 12 12 12 12 13 13 13
6 5 4 5 4 5 5 5 5 5 5 6 5 5 5 5 5 6 6 7 7 8 8 8 8 9 9 9 10 10 10 11 11 11 11 11 11 11 12 12 12 12 12 12 12 12 12 12 12
6 5 5 5 5 5 5 5 5 6 6 5 5 5 5 5 5 5 6 6 7 7 7 8 8 8 9 9 9 10 10 10 10 10 11 11 11 11 11 12 12 12 11 11 12 12 12 12 12
6 5 5 5 5 5 5 5 6 6 6 5 5 4 4 4 4 4 5 6 6 6 7 7 7 8 8 8 9 9 9 10 10 10 10 11 11 11 11 11 11 11 11 11 11 11 11 11 11
6 6 5 5 6 6 6 5 5 5 5 5 4 4 4 4 4 4 4 5 5 6 6 7 7 7 8 8 8 8 9 9 9 10 10 10 10 10 10 11 11 11 11 11 11 11 11 11 11
6 6 5 5 5 6 6 6 5 5 5 4 4 4 3 3 3 4 4 4 5 5 6 6 7 7 7 7 8 8 8 9 9 9 9 9 9 10 10 10 10 10 10 10 10 10 10 10 10
6 6 5 6 5 5 5 5 5 5 4 4 4 3 3 3 3 3 4 4 5 5 5 5 6 6 6 7 7 7 7 8 8 8 8 9 9 9 9 9 9 9 9 9 9 9 10 10 10